Total_Precipitation_Accumulation
2.52 2.51 2.43 2.48 2.45 2.42 2.30 2.13 1.98 1.91 1.76 1.63 1.52 1.56 1.57 1.50 1.48 1.51 1.50 1.55 1.64 1.67 1.71 1.82 1.91 1.96 2.07 2.10 2.16 2.19 2.28 2.32 2.28 2.04 1.89 1.85 1.84 1.82 1.83 1.69 1.58 1.51 1.40
2.23 2.31 2.40 2.43 2.34 2.21 2.01 1.89 1.77 1.65 1.50 1.44 1.40 1.45 1.44 1.33 1.31 1.28 1.23 1.28 1.37 1.48 1.56 1.64 1.72 1.74 1.81 1.79 1.88 1.94 1.96 2.02 2.05 2.08 2.09 2.02 1.96 1.90 1.82 1.65 1.41 1.24 1.21
2.03 2.02 2.18 2.25 2.13 1.97 1.82 1.74 1.64 1.50 1.44 1.43 1.39 1.37 1.34 1.25 1.17 1.13 1.14 1.14 1.12 1.20 1.32 1.38 1.45 1.46 1.44 1.41 1.47 1.49 1.59 1.69 1.88 1.94 1.94 2.00 1.98 1.97 2.01 1.73 1.50 1.46 1.12
2.03 2.18 2.20 2.12 1.99 1.90 1.70 1.52 1.42 1.32 1.35 1.41 1.36 1.27 1.17 1.09 1.04 1.08 1.13 1.12 1.07 1.08 1.10 1.14 1.16 1.11 1.08 1.11 1.14 1.20 1.34 1.59 1.76 1.81 1.73 1.75 1.83 1.81 1.98 1.87 1.71 1.58 1.34
1.99 1.99 1.94 1.87 1.79 1.77 1.70 1.55 1.39 1.26 1.20 1.27 1.20 1.14 1.07 0.97 0.91 0.95 1.01 1.01 1.01 0.99 1.00 1.00 0.96 0.93 0.95 0.93 0.88 0.99 1.19 1.45 1.57 1.64 1.65 1.61 1.60 1.66 1.73 1.65 1.64 1.63 1.50
1.72 1.72 1.64 1.61 1.66 1.61 1.59 1.48 1.38 1.28 1.22 1.23 1.18 1.07 0.95 0.81 0.83 0.84 0.81 0.86 0.96 1.01 0.97 0.89 0.84 0.81 0.79 0.79 0.80 0.89 1.02 1.15 1.27 1.40 1.45 1.47 1.47 1.51 1.63 1.63 1.62 1.65 1.62
1.55 1.49 1.49 1.49 1.46 1.44 1.31 1.25 1.29 1.33 1.25 1.19 1.10 0.98 0.90 0.84 0.77 0.72 0.76 0.85 0.94 1.01 1.02 1.02 0.87 0.70 0.77 0.81 0.83 0.87 0.92 0.96 1.06 1.23 1.33 1.33 1.40 1.52 1.70 1.68 1.68 1.66 1.59
1.48 1.40 1.34 1.36 1.32 1.29 1.26 1.25 1.26 1.26 1.22 1.18 1.08 0.97 0.89 0.79 0.76 0.73 0.76 0.80 0.92 0.96 0.96 0.98 0.99 0.92 0.86 0.89 0.87 0.90 0.93 0.98 1.04 1.11 1.26 1.29 1.25 1.37 1.58 1.58 1.59 1.57 1.49
1.27 1.22 1.14 1.17 1.24 1.24 1.22 1.29 1.26 1.17 1.13 1.08 1.02 0.98 0.93 0.81 0.74 0.70 0.75 0.85 0.92 0.88 0.81 0.80 0.79 0.79 0.77 0.83 0.90 0.97 0.99 0.99 0.89 0.94 0.99 1.08 1.19 1.28 1.35 1.40 1.51 1.66 1.59
1.13 1.12 1.03 1.04 1.11 1.18 1.21 1.24 1.15 1.08 1.05 0.93 0.90 0.95 0.93 0.88 0.75 0.65 0.70 0.74 0.80 0.79 0.76 0.73 0.72 0.68 0.65 0.63 0.73 0.92 1.05 1.01 0.95 0.95 1.07 1.22 1.30 1.35 1.31 1.37 1.50 1.60 1.58
0.96 1.03 1.03 1.02 1.04 1.05 1.08 1.13 1.08 1.01 0.99 0.98 0.96 0.99 0.99 0.92 0.77 0.66 0.65 0.65 0.68 0.71 0.74 0.74 0.72 0.63 0.54 0.55 0.66 0.82 0.90 0.89 0.98 1.20 1.40 1.46 1.45 1.39 1.30 1.28 1.43 1.55 1.59
0.94 1.07 1.08 1.05 0.95 0.93 1.07 1.12 1.05 1.00 0.95 0.98 0.99 1.00 1.01 0.97 0.81 0.68 0.62 0.60 0.62 0.65 0.70 0.69 0.66 0.61 0.53 0.56 0.62 0.73 0.78 0.88 1.11 1.35 1.50 1.47 1.29 1.15 1.13 1.12 1.18 1.34 1.46
1.00 1.07 1.09 1.02 0.99 0.98 1.03 1.04 0.97 0.93 0.86 0.86 0.87 0.90 0.91 0.84 0.76 0.68 0.62 0.57 0.57 0.61 0.62 0.61 0.59 0.61 0.64 0.73 0.78 0.78 0.85 1.04 1.24 1.34 1.35 1.25 1.14 1.08 1.08 1.11 1.10 1.23 1.29
1.04 1.03 1.03 1.04 1.03 0.96 0.92 0.88 0.85 0.83 0.78 0.75 0.77 0.79 0.76 0.73 0.66 0.56 0.54 0.54 0.54 0.58 0.60 0.65 0.72 0.78 0.81 0.85 0.91 0.99 1.04 1.10 1.10 1.18 1.18 1.11 1.02 1.04 1.07 1.06 1.09 1.15 1.26
0.98 0.91 0.89 0.92 0.90 0.86 0.76 0.70 0.69 0.64 0.56 0.55 0.56 0.58 0.57 0.57 0.55 0.49 0.48 0.50 0.48 0.51 0.58 0.72 0.90 0.97 0.99 0.98 0.96 0.99 1.02 1.03 1.03 1.01 0.99 0.97 0.98 0.97 0.98 0.96 1.01 1.04 1.16
0.86 0.81 0.77 0.79 0.78 0.72 0.69 0.64 0.57 0.46 0.43 0.40 0.39 0.41 0.41 0.45 0.44 0.37 0.39 0.43 0.43 0.52 0.60 0.83 0.97 1.01 1.03 0.93 0.88 0.86 0.86 0.87 0.84 0.84 0.86 0.89 0.92 0.91 0.93 0.92 0.95 1.00 1.07
0.79 0.78 0.68 0.64 0.68 0.67 0.63 0.64 0.66 0.52 0.42 0.39 0.38 0.41 0.42 0.42 0.40 0.39 0.37 0.42 0.47 0.52 0.60 0.74 0.86 0.93 0.93 0.83 0.79 0.80 0.81 0.78 0.77 0.77 0.81 0.84 0.86 0.86 0.89 0.92 0.93 0.97 0.99
0.65 0.61 0.58 0.59 0.58 0.55 0.55 0.55 0.58 0.65 0.65 0.59 0.47 0.44 0.44 0.46 0.45 0.42 0.39 0.47 0.55 0.55 0.62 0.68 0.73 0.80 0.83 0.79 0.77 0.79 0.79 0.78 0.78 0.78 0.78 0.82 0.85 0.85 0.83 0.83 0.85 0.85 0.90
0.51 0.47 0.46 0.44 0.45 0.46 0.48 0.48 0.50 0.55 0.61 0.64 0.62 0.54 0.49 0.53 0.53 0.51 0.48 0.49 0.57 0.61 0.63 0.65 0.64 0.68 0.70 0.71 0.74 0.76 0.75 0.74 0.75 0.75 0.75 0.80 0.82 0.81 0.81 0.76 0.73 0.73 0.81
0.47 0.41 0.37 0.34 0.35 0.37 0.40 0.43 0.49 0.50 0.51 0.57 0.60 0.53 0.51 0.58 0.61 0.59 0.53 0.51 0.57 0.60 0.59 0.62 0.63 0.63 0.64 0.61 0.62 0.64 0.68 0.67 0.64 0.67 0.73 0.79 0.81 0.81 0.77 0.71 0.70 0.75 0.80
0.37 0.35 0.32 0.29 0.33 0.35 0.35 0.39 0.45 0.44 0.48 0.51 0.49 0.45 0.51 0.57 0.62 0.59 0.56 0.55 0.60 0.64 0.65 0.62 0.60 0.60 0.58 0.55 0.56 0.59 0.61 0.61 0.60 0.61 0.66 0.72 0.72 0.70 0.67 0.62 0.60 0.62 0.65
0.33 0.34 0.28 0.27 0.29 0.32 0.34 0.37 0.37 0.40 0.42 0.43 0.43 0.41 0.48 0.52 0.57 0.59 0.59 0.61 0.63 0.64 0.64 0.62 0.60 0.58 0.56 0.55 0.55 0.55 0.56 0.58 0.62 0.63 0.63 0.63 0.60 0.57 0.55 0.53 0.52 0.52 0.56
0.28 0.30 0.29 0.27 0.28 0.30 0.33 0.36 0.35 0.32 0.35 0.38 0.39 0.39 0.40 0.46 0.52 0.58 0.60 0.60 0.65 0.64 0.62 0.61 0.57 0.54 0.53 0.51 0.49 0.50 0.52 0.52 0.51 0.52 0.56 0.56 0.54 0.52 0.49 0.49 0.50 0.52 0.55
0.26 0.28 0.27 0.25 0.27 0.29 0.32 0.31 0.28 0.27 0.33 0.38 0.40 0.42 0.41 0.45 0.48 0.55 0.61 0.63 0.63 0.62 0.58 0.54 0.50 0.47 0.46 0.46 0.44 0.41 0.42 0.42 0.40 0.39 0.42 0.45 0.44 0.45 0.45 0.46 0.48 0.49 0.53
0.24 0.25 0.23 0.22 0.25 0.30 0.30 0.27 0.26 0.26 0.28 0.34 0.39 0.42 0.42 0.42 0.47 0.54 0.61 0.65 0.64 0.59 0.51 0.47 0.43 0.41 0.41 0.39 0.38 0.35 0.37 0.38 0.35 0.34 0.38 0.42 0.39 0.40 0.44 0.48 0.51 0.48 0.48
0.21 0.24 0.23 0.25 0.27 0.25 0.25 0.25 0.25 0.26 0.29 0.31 0.35 0.39 0.41 0.46 0.50 0.52 0.53 0.55 0.57 0.56 0.48 0.39 0.35 0.35 0.37 0.37 0.34 0.33 0.33 0.32 0.32 0.35 0.36 0.39 0.40 0.39 0.40 0.44 0.47 0.48 0.48